Weather reports worldwide

Advertisment
La Rochelle/Ile de Re, France (7316): temperature & dewpoint: 10.09.2019 05:00:00 - 16.09.2019 05:00:00 (CEST)La Rochelle/Ile de Re, France (7316): wind speed & gusts: 10.09.2019 05:00:00 - 16.09.2019 05:00:00 (CEST)La Rochelle/Ile de Re, France (7316): wind direction: 10.09.2019 05:00:00 - 16.09.2019 05:00:00 (CEST)La Rochelle/Ile de Re, France (7316): reduced air pressure: 10.09.2019 05:00:00 - 16.09.2019 05:00:00 (CEST)La Rochelle/Ile de Re, France (7316): visibility: 10.09.2019 05:00:00 - 16.09.2019 05:00:00 (CEST)La Rochelle/Ile de Re, France (7316): sunshine duration: 10.09.2019 05:00:00 - 16.09.2019 05:00:00 (CEST)La Rochelle/Ile de Re, France (7316): precipitation: 10.09.2019 05:00:00 - 16.09.2019 05:00:00 (CEST)
Date & Time tt [°C] td [°C] ff [km/h] ff [kn] fx [km/h] fx [kn] dd ppp [hPa] vv [km] sd [min] rr [mm]
16.09.2019 05:00:00 18,8 13,9 11 6 18 10 NNE 1020,2 60 0 0,0
16.09.2019 04:00:00 19,4 13,1 11 6 22 12 NE 1020,3 60 0 0,0
16.09.2019 03:00:00 19,8 13,5 12 7 18 10 NNE 1020,6 60 0 0,0
16.09.2019 02:00:00 21,0 12,7 11 6 21 11 NNE 1020,5 60 0 0,0
16.09.2019 01:00:00 22,2 12,7 16 9 25 13 NE 1020,5 60 0 0,0
16.09.2019 00:00:00 23,5 13,1 16 9 25 13 NE 1020,9 60 0 0,0
15.09.2019 23:00:00 23,5 13,9 14 7 20 11 NE 1020,8 60 0 0,0
15.09.2019 22:00:00 22,1 17,0 8 4 12 6 NNE 1020,7 60 0 0,0
15.09.2019 21:00:00 21,7 16,6 8 4 15 8 NW 1020,3 60 0 0,0
15.09.2019 20:00:00 23,6 16,4 13 7 24 13 NW 1020,0 60 54 0,0
15.09.2019 19:00:00 24,2 16,7 19 10 28 15 NW 1019,8 17 60 0,0
15.09.2019 18:00:00 26,2 16,4 15 8 25 14 NW 1020,2 44 60 0,0
15.09.2019 17:00:00 26,5 17,3 16 9 24 13 NW 1020,5 57 60 0,0
15.09.2019 16:00:00 30,8 16,0 14 8 34 18 NNW 1020,9 60 60 0,0
15.09.2019 15:00:00 32,3 14,9 14 8 36 19 E 1021,6 26 60 0,0
15.09.2019 14:00:00 30,9 15,3 18 10 33 18 NE 1022,2 40 60 0,0
15.09.2019 13:00:00 29,8 15,5 20 11 34 19 ENE 1022,8 43 60 0,0
15.09.2019 12:00:00 27,6 15,6 19 10 27 14 ENE 1023,4 48 60 0,0
15.09.2019 11:00:00 25,0 15,3 14 7 21 11 ENE 1023,7 51 60 0,0
15.09.2019 10:00:00 22,4 14,8 13 7 18 10 ENE 1023,7 57 60 0,0
15.09.2019 09:00:00 19,2 14,7 9 5 14 7 NE 1023,2 55 50 0,0
15.09.2019 08:00:00 17,5 13,8 7 4 14 7 ENE 1023,2 59 0 0,0
15.09.2019 07:00:00 17,4 13,7 10 5 13 7 E 1023,0 60 0 0,0
15.09.2019 06:00:00 18,2 13,9 8 4 17 9 ENE 1022,9 60 0 0,0
15.09.2019 05:00:00 19,0 14,3 9 5 19 10 ENE 1023,3 60 0 0,0
15.09.2019 04:00:00 18,6 14,7 11 6 16 8 NNE 1023,6 60 0 0,0
15.09.2019 03:00:00 18,6 14,3 9 5 12 6 NNE 1024,1 59 0 0,0
15.09.2019 02:00:00 19,4 14,6 8 4 13 7 NE 1024,2 60 0 0,0
15.09.2019 01:00:00 20,0 14,8 7 4 16 8 NNE 1024,1 60 0 0,0
15.09.2019 00:00:00 21,8 15,2 11 6 18 10 E 1024,2 60 0 0,0
14.09.2019 23:00:00 22,9 15,2 13 7 17 9 ENE 1024,6 60 0 0,0
14.09.2019 22:00:00 23,3 15,1 8 5 16 8 ENE 1024,8 60 0 0,0
14.09.2019 21:00:00 25,2 15,5 10 5 23 12 NE 1024,3 60 0 0,0
14.09.2019 20:00:00 28,7 15,9 16 9 25 14 NE 1023,8 57 56 0,0
14.09.2019 19:00:00 31,0 15,4 13 7 27 15 ENE 1023,8 45 60 0,0
14.09.2019 18:00:00 31,2 14,8 14 8 29 16 ENE 1023,8 50 58 0,0
14.09.2019 17:00:00 31,3 16,1 13 7 27 14 ENE 1024,0 60 53 0,0
14.09.2019 16:00:00 31,5 15,5 14 7 35 19 E 1024,4 44 60 0,0
14.09.2019 15:00:00 30,1 16,1 15 8 34 18 E 1025,0 44 60 0,0
14.09.2019 14:00:00 28,5 15,8 19 10 32 18 ENE 1025,6 45 60 0,0
14.09.2019 13:00:00 26,4 16,0 17 9 37 20 E 1026,2 37 54 0,0
14.09.2019 12:00:00 24,4 15,6 27 15 38 21 NE 1026,5 24 56 0,0
14.09.2019 11:00:00 21,5 15,1 29 16 45 24 ENE 1026,6 25 28 0,0
14.09.2019 10:00:00 20,5 14,8 29 16 41 22 NE 1026,9 38 20 0,0
14.09.2019 09:00:00 18,8 14,5 26 14 40 21 ENE 1026,7 49 18 0,0
14.09.2019 08:00:00 18,2 14,3 24 13 40 22 ENE 1026,4 60 0 0,0
14.09.2019 07:00:00 18,5 14,2 24 13 40 22 ENE 1026,2 59 0 0,0
14.09.2019 06:00:00 18,9 14,0 26 14 38 20 ENE 1026,1 60 0 0,0
14.09.2019 05:00:00 19,2 14,0 22 12 34 18 ENE 1026,3 60 0 0,0
14.09.2019 04:00:00 19,9 14,3 24 13 35 19 NE 1026,7 60 0 0,0
14.09.2019 03:00:00 20,2 14,3 22 12 31 17 NE 1027,1 60 0 0,0
14.09.2019 02:00:00 19,5 14,5 15 8 21 11 NE 1027,5 60 0 0,0
14.09.2019 01:00:00 20,3 14,9 15 8 25 13 NE 1027,3 60 0 0,0
14.09.2019 00:00:00 20,8 15,3 16 9 30 16 NNE 1027,4 60 0 0,0
13.09.2019 23:00:00 21,8 15,4 18 10 26 14 NNE 1027,5 60 0 0,0
13.09.2019 22:00:00 24,3 15,2 18 10 26 14 NNE 1027,7 60 0 0,0
13.09.2019 21:00:00 25,4 15,1 17 9 27 14 NE 1027,4 60 0 0,0
13.09.2019 20:00:00 27,9 14,9 18 10 32 17 NE 1027,2 57 58 0,0
13.09.2019 19:00:00 29,5 14,9 21 11 35 19 ENE 1027,4 36 60 0,0
13.09.2019 18:00:00 30,2 14,3 18 10 37 20 ENE 1027,6 30 60 0,0
13.09.2019 17:00:00 30,1 14,6 23 12 37 20 NE 1027,5 30 60 0,0
13.09.2019 16:00:00 30,1 14,6 23 12 37 20 ENE 1028,1 30 60 0,0
13.09.2019 15:00:00 29,0 14,4 22 12 38 21 NE 1029,0 28 60 0,0
13.09.2019 14:00:00 28,4 16,0 21 11 41 22 NE 1029,5 32 60 0,0
13.09.2019 13:00:00 27,3 16,6 23 13 37 20 NE 1029,7 35 60 0,0
13.09.2019 12:00:00 25,4 16,8 23 12 32 18 NNE 1030,1 39 60 0,0
13.09.2019 11:00:00 23,0 16,8 17 9 28 15 NE 1030,9 40 60 0,0
13.09.2019 10:00:00 20,1 16,5 17 9 26 14 NE 1031,1 44 60 0,0
13.09.2019 09:00:00 16,9 15,1 11 6 17 9 NE 1031,1 47 60 0,0
13.09.2019 08:00:00 14,8 13,8 10 5 14 8 NE 1031,0 18 0 0,0
13.09.2019 07:00:00 14,8 13,8 11 6 17 9 NE 1031,0 41 0 0,0
13.09.2019 06:00:00 15,0 13,9 11 6 16 9 NE 1030,8 37 0 0,0
13.09.2019 05:00:00 15,3 14,0 10 5 22 12 NE 1030,9 48 0 0,0
13.09.2019 04:00:00 16,1 15,0 13 7 21 11 NNE 1031,1 60 0 0,0
13.09.2019 03:00:00 16,3 15,2 13 7 20 11 N 1031,5 60 0 0,0
13.09.2019 02:00:00 16,6 15,5 15 8 21 11 N 1031,9 60 0 0,0
13.09.2019 01:00:00 16,6 15,3 15 8 19 11 N 1031,6 60 0 0,0
13.09.2019 00:00:00 17,4 15,7 14 8 24 13 N 1031,8 60 0 0,0
12.09.2019 23:00:00 18,2 16,4 18 10 27 15 N 1031,8 60 0 0,0
12.09.2019 22:00:00 18,3 17,0 12 6 21 11 NNW 1031,7 60 0 0,0
12.09.2019 21:00:00 18,6 16,9 13 7 25 13 NW 1031,4 60 0 0,0
12.09.2019 20:00:00 19,3 16,7 18 10 29 16 NW 1030,9 25 60 0,0
12.09.2019 19:00:00 19,8 16,6 21 11 28 15 WNW 1031,0 25 60 0,0
12.09.2019 18:00:00 20,6 16,4 20 11 27 15 WNW 1031,3 26 60 0,0
12.09.2019 17:00:00 21,2 16,4 19 10 25 13 NW 1031,6 28 60 0,0
12.09.2019 16:00:00 21,6 15,7 16 9 23 12 NW 1032,2 33 60 0,0
12.09.2019 15:00:00 20,9 14,1 12 7 21 12 NW 1032,8 37 60 0,0
12.09.2019 14:00:00 20,1 14,7 13 7 22 12 WNW 1033,2 20 49 0,0
12.09.2019 13:00:00 19,3 15,4 11 6 17 9 NW 1033,5 31 6 0,0
12.09.2019 12:00:00 18,8 14,7 3 2 12 6 SSW 1033,5 36 0 0,0
12.09.2019 11:00:00 17,9 14,8 6 3 14 8 E 1033,1 49 0 0,0
12.09.2019 10:00:00 17,1 14,7 8 4 16 8 NE 1032,6 6 0 0,0
12.09.2019 09:00:00 16,5 14,9 8 5 16 9 NE 1032,0 44 0 0,0
12.09.2019 08:00:00 16,1 14,6 13 7 18 10 N 1031,2 45 0 0,0
12.09.2019 07:00:00 16,1 14,8 11 6 16 8 NNE 1030,8 49 0 0,0
12.09.2019 06:00:00 15,3 13,8 8 5 20 11 NNE 1030,7 47 0 0,0
12.09.2019 05:00:00 16,1 14,5 11 6 22 12 N 1030,9 53 0 0,0
12.09.2019 04:00:00 15,8 14,3 17 9 24 13 N 1030,8 58 0 0,0
12.09.2019 03:00:00 15,7 14,4 18 10 26 14 N 1031,1 47 0 0,0
12.09.2019 02:00:00 15,2 14,1 13 7 19 10 N 1030,7 39 0 0,0
12.09.2019 01:00:00 15,3 13,8 12 7 26 14 N 1030,4 50 0 0,0
12.09.2019 00:00:00 16,1 14,1 19 10 27 15 NNW 1030,3 52 0 0,0
11.09.2019 23:00:00 16,4 14,1 19 11 28 15 NNW 1030,1 53 0 0,0
11.09.2019 22:00:00 16,6 14,1 20 11 29 16 NW 1029,6 51 0 0,0
11.09.2019 21:00:00 16,6 13,9 21 11 34 18 WNW 1029,3 47 2 0,0
11.09.2019 20:00:00 16,9 13,4 24 13 37 20 WNW 1028,6 40 50 0,0
11.09.2019 19:00:00 18,0 12,0 26 14 38 20 WNW 1028,5 17 60 0,0
11.09.2019 18:00:00 19,0 10,5 29 15 40 22 WNW 1028,3 16 60 0,0
11.09.2019 17:00:00 19,5 13,7 29 16 40 21 WNW 1028,0 17 60 0,0
11.09.2019 16:00:00 19,8 14,4 28 15 40 21 WNW 1027,9 20 60 0,0
11.09.2019 15:00:00 19,9 14,9 24 13 32 17 WNW 1028,1 26 56 0,0
11.09.2019 14:00:00 20,0 12,7 19 10 27 15 WNW 1028,1 28 56 0,0
11.09.2019 13:00:00 19,0 12,3 13 7 21 11 NW 1027,9 33 33 0,0
11.09.2019 12:00:00 18,0 12,4 11 6 22 12 NNW 1028,0 31 48 0,0
11.09.2019 11:00:00 16,2 12,4 8 4 17 9 N 1027,8 20 36 0,0
11.09.2019 10:00:00 14,7 12,7 9 5 21 11 N 1027,2 19 2 0,0
11.09.2019 09:00:00 13,6 12,2 11 6 18 10 N 1026,4 16 40 0,0
11.09.2019 08:00:00 12,3 11,2 10 6 19 10 NNW 1025,7 16 1 0,0
11.09.2019 07:00:00 12,4 11,3 11 6 19 11 NNE 1025,0 16 0 0,0
11.09.2019 06:00:00 12,9 11,5 12 7 21 11 NNE 1024,3 20 0 0,0
11.09.2019 05:00:00 13,4 11,5 13 7 23 13 NNE 1024,1 31 0 0,0
11.09.2019 04:00:00 13,7 11,4 14 8 23 12 N 1024,2 41 0 0,0
11.09.2019 03:00:00 14,1 10,9 12 7 31 17 NNE 1023,8 57 0 0,0
11.09.2019 02:00:00 15,3 10,5 19 11 31 17 N 1024,1 60 0 0,0
11.09.2019 01:00:00 15,7 10,2 14 8 23 13 N 1023,5 60 0 0,0
11.09.2019 00:00:00 16,0 10,1 14 8 20 11 N 1023,1 60 0 0,0
10.09.2019 23:00:00 16,7 9,6 13 7 21 11 N 1022,5 60 0 0,0
10.09.2019 22:00:00 17,6 9,7 16 8 26 14 N 1021,8 60 0 0,0
10.09.2019 21:00:00 18,6 9,9 16 9 28 15 N 1020,9 60 0 0,0
10.09.2019 20:00:00 20,7 9,3 17 9 31 17 N 1020,0 58 53 0,0
10.09.2019 19:00:00 22,6 8,7 19 11 34 18 N 1019,2 34 60 0,0
10.09.2019 18:00:00 23,5 8,0 19 10 39 21 NNE 1018,5 31 60 0,0
10.09.2019 17:00:00 23,1 8,8 17 9 40 21 N 1018,1 27 60 0,0
10.09.2019 16:00:00 22,9 8,9 23 12 37 20 N 1018,1 28 56 0,0
10.09.2019 15:00:00 22,3 8,8 22 12 42 23 NE 1018,0 29 60 0,0
10.09.2019 14:00:00 21,7 8,6 20 11 48 26 NE 1017,6 29 57 0,0
10.09.2019 13:00:00 19,9 10,3 22 12 37 20 ENE 1017,3 30 58 0,0
10.09.2019 12:00:00 16,8 11,3 23 12 38 21 ENE 1016,7 32 49 0,0
10.09.2019 11:00:00 16,2 11,6 24 13 35 19 ENE 1016,1 34 42 0,0
10.09.2019 10:00:00 13,0 11,7 19 11 30 16 ENE 1015,1 35 12 0,0
10.09.2019 09:00:00 12,2 11,4 16 9 23 12 NE 1014,0 25 60 0,0
10.09.2019 08:00:00 11,3 10,7 18 10 27 15 NE 1013,1 33 2 0,0
10.09.2019 07:00:00 10,8 9,6 8 5 14 8 ENE 1011,7 31 0 0,0
10.09.2019 06:00:00 12,4 11,0 9 5 14 8 E 1010,9 40 0 0,0
10.09.2019 05:00:00 13,9 11,6 11 6 19 11 W 1010,5 57 0 0,0

tt = temperature
td = dewpoint
ff = wind speed
fx = gusts
dd = wind direction
ppp = reduced air pressure
vv = visibility
sd = sunshine duration
rr = precipitation

Next stations